Greenville, TX

9:59 PM CDT on August 22, 2017 (GMT -0500)
Majors

Weather History for KGVT - March, 2013

Change the Weather History Date:

Sunday, March 17, 2013

  Actual Average Record
Temperature  
Mean Temperature 66 °F -  
Max Temperature 77 °F 64 °F 80 °F (2004)
Min Temperature 55 °F 49 °F 30 °F (2005)
Cooling Degree Days 1    
Growing Degree Days 16 (Base 50)    
Moisture  
Dew Point 54 °F    
Average Humidity 66    
Maximum Humidity 83    
Minimum Humidity 46    
Precipitation  
Precipitation 0.00 in - - ()
Sea Level Pressure  
Sea Level Pressure 29.74 in    
Wind  
Wind Speed 13 mph (SSW)    
Max Wind Speed 20 mph    
Max Gust Speed 28 mph    
Visibility 10 miles    
Events      
Averages and records for this station are not official NWS values.
T = Trace of Precipitation, MM = Missing Value Source: NWS Daily Summary

Daily Weather History Graph

Daily Weather History Graph

Search for Another Location

Airport or City:

Trip Planner

Search our weather history database for the weather conditions in past years. The results will help you decide how hot, cold, wet, or windy it might be!

Date:

Astronomy

Mar. 17, 2013 Rise Set
Actual Time 7:31 AM CDT 7:33 PM CDT
Civil Twilight 7:06 AM CDT 7:58 PM CDT
Nautical Twilight 6:38 AM CDT 8:27 PM CDT
Astronomical Twilight 6:09 AM CDT 8:56 PM CDT
Moon 11:02 AM CDT (3/17) 12:26 AM CDT (3/17)
Length of Visible Light 12h 51m
Length of Day
12h 02m
Waxing Crescent, 31% of the Moon is Illuminated
Mar 17
Waxing Crescent
Mar 19
First Quarter
Mar 27
Full
Apr 2
Last Quarter
Apr 10
New

Hourly Weather History & Observations

Time (CDT) Temp. Dew Point Humidity Pressure Visibility Wind Dir Wind Speed Gust Speed Precip Events Conditions
12:15 AM 68.0 °F 51.8 °F 56% 29.76 in 10.0 mi South 16.1 mph - N/A   Clear
12:35 AM 68.0 °F 53.6 °F 60% 29.76 in 10.0 mi South 16.1 mph 23.0 mph N/A   Clear
12:55 AM 68.0 °F 53.6 °F 60% 29.76 in 10.0 mi South 19.6 mph - N/A   Clear
1:15 AM 68.0 °F 53.6 °F 60% 29.76 in 10.0 mi South 15.0 mph 21.9 mph N/A   Clear
1:35 AM 66.2 °F 55.4 °F 68% 29.77 in 10.0 mi South 17.3 mph 25.3 mph N/A   Clear
1:55 AM 66.2 °F 55.4 °F 68% 29.78 in 10.0 mi South 19.6 mph 27.6 mph N/A   Mostly Cloudy
2:15 AM 66.2 °F 55.4 °F 68% 29.78 in 10.0 mi South 17.3 mph 24.2 mph N/A   Overcast
2:35 AM 66.2 °F 55.4 °F 68% 29.78 in 10.0 mi South 15.0 mph 21.9 mph N/A   Overcast
2:55 AM 66.2 °F 57.2 °F 73% 29.77 in 10.0 mi South 12.7 mph - N/A   Overcast
3:15 AM 66.2 °F 57.2 °F 73% 29.76 in 10.0 mi South 12.7 mph 19.6 mph N/A   Overcast
3:35 AM 66.2 °F 57.2 °F 73% 29.76 in 10.0 mi South 11.5 mph - N/A   Overcast
3:55 AM 66.2 °F 57.2 °F 73% 29.76 in 10.0 mi South 13.8 mph - N/A   Overcast
4:15 AM 66.2 °F 57.2 °F 73% 29.76 in 10.0 mi South 12.7 mph - N/A   Overcast
4:35 AM 66.2 °F 57.2 °F 73% 29.75 in 10.0 mi South 12.7 mph - N/A   Overcast
4:55 AM 64.4 °F 57.2 °F 77% 29.76 in 10.0 mi South 8.1 mph - N/A   Overcast
5:35 AM 64.4 °F 57.2 °F 77% 29.76 in 10.0 mi SSE 8.1 mph - N/A   Overcast
5:55 AM 64.4 °F 57.2 °F 77% 29.77 in 10.0 mi South 6.9 mph - N/A   Overcast
6:15 AM 64.4 °F 59.0 °F 83% 29.78 in 10.0 mi South 9.2 mph - N/A   Overcast
6:35 AM 64.4 °F 59.0 °F 83% 29.78 in 10.0 mi SSE 10.4 mph - N/A   Overcast
6:55 AM 64.4 °F 59.0 °F 83% 29.77 in 10.0 mi SSE 9.2 mph - N/A   Overcast
7:15 AM 64.4 °F 59.0 °F 83% 29.78 in 10.0 mi SSE 8.1 mph - N/A   Overcast
7:35 AM 64.4 °F 59.0 °F 83% 29.78 in 10.0 mi SSE 10.4 mph - N/A   Overcast
7:55 AM 64.4 °F 59.0 °F 83% 29.78 in 10.0 mi SSE 10.4 mph - N/A   Overcast
8:15 AM 64.4 °F 59.0 °F 83% 29.79 in 10.0 mi South 11.5 mph - N/A   Overcast
8:35 AM 64.4 °F 59.0 °F 83% 29.79 in 10.0 mi South 13.8 mph - N/A   Overcast
8:55 AM 64.4 °F 59.0 °F 83% 29.79 in 10.0 mi South 12.7 mph 17.3 mph N/A   Overcast
9:15 AM 64.4 °F 59.0 °F 83% 29.80 in 10.0 mi South 10.4 mph - N/A   Overcast
9:35 AM 64.4 °F 59.0 °F 83% 29.80 in 10.0 mi South 13.8 mph 18.4 mph N/A   Overcast
9:55 AM 66.2 °F 59.0 °F 78% 29.79 in 10.0 mi South 12.7 mph - N/A   Overcast
10:15 AM 68.0 °F 59.0 °F 73% 29.80 in 10.0 mi South 12.7 mph - N/A   Overcast
10:35 AM 68.0 °F 59.0 °F 73% 29.79 in 10.0 mi South 16.1 mph 21.9 mph N/A   Overcast
10:55 AM 69.8 °F 59.0 °F 68% 29.80 in 10.0 mi South 16.1 mph 21.9 mph N/A   Overcast
11:15 AM 68.0 °F 59.0 °F 73% 29.80 in 10.0 mi South 16.1 mph - N/A   Overcast
11:35 AM 69.8 °F 59.0 °F 68% 29.78 in 10.0 mi South 12.7 mph - N/A   Mostly Cloudy
11:55 AM 71.6 °F 57.2 °F 60% 29.77 in 10.0 mi South 19.6 mph 24.2 mph N/A   Scattered Clouds
12:15 PM 73.4 °F 55.4 °F 53% 29.76 in 10.0 mi South 19.6 mph 25.3 mph N/A   Scattered Clouds
12:35 PM 75.2 °F 55.4 °F 50% 29.75 in 10.0 mi South 19.6 mph 26.5 mph N/A   Mostly Cloudy
1:15 PM 77.0 °F 55.4 °F 47% 29.74 in 10.0 mi SSW 17.3 mph 25.3 mph N/A   Scattered Clouds
1:35 PM 73.4 °F 55.4 °F 53% 29.73 in 10.0 mi SSW 16.1 mph - N/A   Mostly Cloudy
1:55 PM 73.4 °F 55.4 °F 53% 29.72 in 10.0 mi SSW 16.1 mph 24.2 mph N/A   Overcast
2:15 PM 75.2 °F 55.4 °F 50% 29.71 in 10.0 mi South 16.1 mph - N/A   Overcast
2:35 PM 73.4 °F 55.4 °F 53% 29.70 in 10.0 mi SSW 15.0 mph 20.7 mph N/A   Overcast
2:55 PM 73.4 °F 55.4 °F 53% 29.70 in 10.0 mi South 16.1 mph 24.2 mph N/A   Overcast
3:15 PM 73.4 °F 55.4 °F 53% 29.69 in 10.0 mi SW 12.7 mph 19.6 mph N/A   Overcast
3:35 PM 68.0 °F 50.0 °F 52% 29.70 in 10.0 mi WNW 13.8 mph 19.6 mph N/A   Overcast
3:55 PM 68.0 °F 50.0 °F 52% 29.69 in 10.0 mi NW 10.4 mph - N/A   Overcast
4:15 PM 68.0 °F 50.0 °F 52% 29.69 in 10.0 mi WNW 9.2 mph - N/A   Overcast
4:35 PM 69.8 °F 50.0 °F 49% 29.68 in 10.0 mi NW 9.2 mph - N/A   Overcast
4:55 PM 69.8 °F 50.0 °F 49% 29.68 in 10.0 mi WNW 10.4 mph 16.1 mph N/A   Mostly Cloudy
5:15 PM 69.8 °F 48.2 °F 46% 29.68 in 10.0 mi WNW 9.2 mph - N/A   Scattered Clouds
5:35 PM 69.8 °F 50.0 °F 49% 29.68 in 10.0 mi WNW 10.4 mph 16.1 mph N/A   Mostly Cloudy
5:55 PM 69.8 °F 50.0 °F 49% 29.69 in 10.0 mi WNW 9.2 mph - N/A   Overcast
6:15 PM 68.0 °F 48.2 °F 49% 29.69 in 10.0 mi WNW 8.1 mph - N/A   Overcast
6:35 PM 68.0 °F 48.2 °F 49% 29.69 in 10.0 mi WNW 6.9 mph - N/A   Mostly Cloudy
6:55 PM 68.0 °F 48.2 °F 49% 29.69 in 10.0 mi WNW 5.8 mph - N/A   Mostly Cloudy
7:15 PM 68.0 °F 50.0 °F 52% 29.69 in 10.0 mi North 5.8 mph - N/A   Overcast
7:35 PM 66.2 °F 48.2 °F 52% 29.69 in 10.0 mi NNW 3.5 mph - N/A   Mostly Cloudy
7:55 PM 64.4 °F 50.0 °F 59% 29.69 in 10.0 mi North 3.5 mph - N/A   Overcast
8:15 PM 64.4 °F 50.0 °F 59% 29.70 in 10.0 mi North 3.5 mph - N/A   Overcast
8:35 PM 64.4 °F 50.0 °F 59% 29.70 in 10.0 mi North 3.5 mph - N/A   Overcast
8:55 PM 62.6 °F 50.0 °F 63% 29.70 in 10.0 mi Calm Calm - N/A   Mostly Cloudy
9:15 PM 60.8 °F 50.0 °F 68% 29.70 in 10.0 mi Calm Calm - N/A   Mostly Cloudy
9:35 PM 59.0 °F 50.0 °F 72% 29.70 in 10.0 mi Calm Calm - N/A   Scattered Clouds
9:55 PM 59.0 °F 50.0 °F 72% 29.71 in 10.0 mi Calm Calm - N/A   Clear
10:15 PM 57.2 °F 50.0 °F 77% 29.71 in 10.0 mi Calm Calm - N/A   Clear
10:35 PM 55.4 °F 50.0 °F 82% 29.72 in 10.0 mi Calm Calm - N/A   Clear
10:55 PM 55.4 °F 50.0 °F 82% 29.73 in 10.0 mi NNW 4.6 mph - N/A   Scattered Clouds
11:15 PM 57.2 °F 50.0 °F 77% 29.73 in 10.0 mi Calm Calm - N/A   Mostly Cloudy
11:35 PM 57.2 °F 50.0 °F 77% 29.72 in 10.0 mi Calm Calm - N/A   Mostly Cloudy
11:55 PM 55.4 °F 48.2 °F 77% 29.72 in 10.0 mi Calm Calm - N/A   Scattered Clouds